This is the latest recevied weather packets stored in our database for station/object DG9VH-13. If no packets are shown the sender has not sent any weather packets the latest 10 day(s).
| Time | Temp. | Humidity | Pressure | Rain* | Wind** | Luminosity | Snow |
|---|---|---|---|---|---|---|---|
| 1788612001 | 25° C | 38% | 1005.8 hPa | - | - | - | - |
| 1788611402 | 25° C | 38% | 1005.8 hPa | - | - | - | - |
| 1788610823 | 25.56° C | 37% | 1005.8 hPa | - | - | - | - |
| 1788610202 | 25.56° C | 39% | 1005.8 hPa | - | - | - | - |
| 1788609602 | 25.56° C | 40% | 1005.8 hPa | - | - | - | - |
| 1788609001 | 25.56° C | 39% | 1006 hPa | - | - | - | - |
| 1788608402 | 25.56° C | 39% | 1005.8 hPa | - | - | - | - |
| 1788607803 | 25.56° C | 40% | 1005.8 hPa | - | - | - | - |
| 1788607200 | 25.56° C | 38% | 1005.9 hPa | - | - | - | - |
| 1788606601 | 26.11° C | 39% | 1005.9 hPa | - | - | - | - |
| 1788606002 | 25.56° C | 42% | 1005.9 hPa | - | - | - | - |
| 1788605401 | 26.11° C | 41% | 1005.9 hPa | - | - | - | - |
| 1788604802 | 25.56° C | 41% | 1006.1 hPa | - | - | - | - |
| 1788604201 | 26.11° C | 43% | 1005.9 hPa | - | - | - | - |
| 1788603600 | 26.11° C | 43% | 1005.9 hPa | - | - | - | - |
| 1788603001 | 25.56° C | 44% | 1006 hPa | - | - | - | - |
| 1788602403 | 26.11° C | 45% | 1006 hPa | - | - | - | - |
| 1788601804 | 25.56° C | 45% | 1006.1 hPa | - | - | - | - |
| 1788601201 | 25° C | 46% | 1005.9 hPa | - | - | - | - |
| 1788600605 | 25° C | 46% | 1006.1 hPa | - | - | - | - |
| 1788600001 | 25.56° C | 46% | 1005.9 hPa | - | - | - | - |
| 1788599401 | 25° C | 48% | 1006 hPa | - | - | - | - |
| 1788598802 | 23.89° C | 51% | 1005.9 hPa | - | - | - | - |
| 1788598201 | 23.89° C | 52% | 1004.4 hPa | - | - | - | - |
| 1788597602 | 22.22° C | 55% | 1005.8 hPa | - | - | - | - |
* Rain since midnight (hover to see other rain measurements)
** Current wind speed in m/s (hover to see current wind gust speed)